Temp
15 18 17 17 16 16 15 15 16 18 16 17 17 16 14 12 14 14 13 14 13 12 13 13 13 13 12 12 12 12 13 13 13 12 11 12 12 11 11 11 12 12 12 12
18 18 16 15 15 15 15 17 17 17 16 18 18 16 16 15 15 13 11 11 13 13 15 13 12 12 12 12 12 13 13 12 12 12 12 12 12 12 12 13 13 13 12 12
19 17 15 15 16 16 16 16 16 15 16 16 18 17 16 16 16 13 10 10 11 13 13 12 12 11 11 11 11 12 12 12 12 12 11 11 11 12 11 12 12 13 14 14
17 16 15 16 17 15 18 15 14 16 18 18 18 17 16 16 15 14 11 7 8 13 13 13 12 11 11 11 10 10 11 11 12 13 12 12 13 13 13 13 12 13 13 13
17 16 16 18 16 14 16 13 14 15 18 19 17 17 16 16 14 13 13 12 11 11 12 13 12 12 12 12 11 11 10 10 11 11 12 12 13 13 13 12 12 13 13 14
16 14 15 16 15 14 14 15 15 16 18 16 15 16 15 13 12 12 12 12 12 12 11 11 11 12 12 12 11 11 11 11 11 10 10 11 12 12 12 12 12 12 12 14
18 16 15 13 16 16 16 17 17 17 16 16 15 16 14 14 12 11 11 11 11 11 11 11 11 11 10 10 11 11 11 11 11 11 11 11 11 11 12 12 12 13 12 12
16 16 16 15 15 14 14 15 15 15 16 16 16 15 14 13 11 11 11 11 11 11 10 10 10 10 9 9 9 9 11 11 11 11 11 11 11 10 11 11 12 12 12 12
16 17 15 14 14 14 16 15 13 14 13 15 15 15 14 13 11 10 10 10 9 10 10 9 9 8 8 8 8 8 9 8 9 10 10 10 10 11 11 11 11 11 11 12
15 15 15 15 14 14 15 14 15 15 15 15 15 15 16 11 9 9 9 8 8 8 8 8 8 7 7 6 7 7 8 8 8 8 9 10 10 9 9 9 9 10 10 10
14 15 16 14 15 15 15 15 14 14 14 15 16 16 11 9 8 8 8 8 7 7 7 7 6 6 5 5 6 6 6 6 7 7 8 8 9 9 9 9 10 10 10 10
14 14 15 16 14 13 14 15 15 15 14 13 14 14 10 9 8 8 8 7 7 7 6 6 5 5 4 4 4 4 4 5 5 5 6 7 8 8 9 9 9 9 9 8
14 14 14 15 14 13 14 14 13 13 13 14 14 14 9 8 8 7 7 6 6 6 5 5 5 4 3 2 2 2 3 3 3 4 5 5 6 6 7 8 8 9 9 9
13 14 15 15 16 14 14 13 13 14 12 14 14 11 8 7 7 7 6 5 5 5 4 4 4 3 2 2 1 1 2 2 2 2 3 4 4 5 5 6 7 7 8 8
13 13 12 13 14 13 12 13 13 11 13 12 14 12 8 6 6 5 4 4 4 3 3 3 3 2 1 1 1 1 1 0 1 1 2 2 3 4 4 5 5 6 6 7
11 13 11 11 12 11 11 12 12 12 12 12 12 9 5 5 5 4 3 2 2 2 2 2 1 1 0 0 -0 -0 -0 -0 0 1 1 1 2 2 3 4 4 4 5 6
11 12 11 12 11 12 13 11 10 8 7 8 10 8 5 5 4 3 1 1 1 1 1 1 0 -0 -0 -1 -1 -1 -1 -1 -1 -1 -0 -0 0 0 1 1 2 3 4 4
11 11 11 11 11 12 7 7 7 8 5 5 4 4 3 3 2 2 0 0 0 -0 -0 -1 -1 -1 -2 -2 -2 -2 -2 -1 -1 -1 -1 -1 -1 -1 -1 -0 0 1 2 3
9 11 11 11 11 12 5 5 6 7 5 3 3 2 2 1 2 1 1 -0 -1 -1 -2 -2 -2 -2 -2 -2 -3 -3 -2 -2 -2 -2 -2 -2 -2 -2 -1 -1 -0 0 1 2
7 9 10 8 10 12 7 4 3 4 7 1 1 1 0 1 5 4 -0 -1 -1 -2 -3 -3 -3 -3 -3 -3 -3 -3 -3 -3 -2 -3 -3 -3 -3 -3 -2 -2 -2 -1 -0 1
8 8 9 9 10 10 3 2 2 6 5 0 -0 -1 -1 -0 -0 -1 -2 -2 -2 -3 -3 -3 -4 -3 -4 -4 -4 -4 -4 -3 -4 -4 -4 -4 -4 -3 -3 -3 -3 -2 -2 -2
10 9 8 8 9 9 -0 1 4 0 -1 -1 -2 -2 -2 -2 -2 -2 -2 -3 -3 -3 -4 -4 -4 -4 -4 -4 -5 -4 -4 -4 -5 -5 -5 -4 -4 -4 -3 -3 -3 -3 -2 -2
9 7 9 7 6 -0 -1 -1 -2 -2 -1 -3 -3 -3 -3 -3 -3 -3 -3 -4 -4 -4 -5 -5 -5 -5 -5 -5 -5 -5 -5 -5 -5 -5 -5 -5 -5 -4 -4 -3 -3 -2 -2 -2
2 1 5 4 -1 -2 -2 -3 -3 -3 -3 -4 -4 -4 -4 -4 -4 -4 -4 -4 -5 -5 -6 -5 -6 -6 -6 -6 -6 -6 -6 -6 -6 -6 -6 -6 -5 -5 -4 -4 -3 -2 -2 -1
0 0 1 0 -1 -3 -3 -4 -4 -4 -4 -4 -5 -5 -5 -5 -4 -5 -5 -5 -6 -6 -6 -6 -7 -7 -7 -7 -7 -7 -7 -7 -7 -7 -7 -6 -5 -5 -5 -4 -3 -2 -2 -2
-3 -3 0 1 -2 -3 -3 -4 -5 -4 -5 -5 -5 -5 -5 -6 -6 -6 -6 -6 -7 -7 -7 -7 -7 -8 -8 -8 -8 -8 -8 -8 -8 -8 -7 -7 -6 -5 -5 -4 -3 -3 -2 -1
Height
822 820 825 820 820 820 821 816 807 797 802 794 795 796 798 798 788 782 781 774 776 773 772 771 776 775 778 776 781 784 788 796 803 808 812 816 819 822 824 826 828 830 833 834
820 822 825 824 822 820 817 806 802 801 803 793 791 796 797 798 794 791 789 780 774 772 771 773 771 766 776 789 777 785 789 795 802 807 811 815 818 821 822 823 825 827 830 832
818 824 825 824 818 815 813 814 810 812 803 802 793 792 797 797 793 792 792 786 773 768 776 779 781 787 792 790 790 782 786 793 798 804 809 812 816 818 820 822 823 824 827 830
824 825 826 821 818 823 806 817 816 809 793 797 790 800 797 800 801 797 805 799 790 769 778 781 787 788 781 781 786 785 788 795 797 802 807 809 812 815 816 819 821 822 824 826
828 827 825 817 821 823 815 820 815 809 797 791 801 801 810 802 801 809 810 807 798 787 783 786 789 791 793 798 796 794 794 794 799 799 805 808 811 813 814 816 818 819 820 822
828 832 830 824 823 822 820 816 812 807 800 812 818 810 814 823 829 821 815 812 805 798 798 797 795 796 795 796 795 798 793 797 798 799 801 806 810 811 811 813 814 816 816 818
824 827 827 831 820 817 814 806 808 809 810 814 819 814 823 825 833 833 826 820 815 810 807 806 803 800 800 795 793 792 796 797 798 801 802 803 807 808 808 810 811 813 813 813
836 834 830 828 829 830 829 825 822 822 818 815 816 820 830 835 839 837 834 830 825 821 820 815 811 809 806 803 799 799 795 797 800 800 799 801 801 804 806 806 807 808 809 810
834 831 833 835 832 833 822 827 835 828 832 821 826 828 832 834 840 840 838 836 833 831 828 825 823 820 815 811 808 804 801 802 801 799 799 798 798 800 798 800 802 804 804 803
840 838 836 832 836 834 827 835 827 827 823 821 819 820 814 837 847 847 848 847 844 841 838 835 831 827 822 819 817 812 812 809 808 806 802 798 797 798 798 798 797 797 797 798
839 838 830 833 832 832 829 826 835 835 830 818 813 810 841 852 855 854 853 853 853 850 845 842 840 836 833 829 822 818 814 812 808 806 801 800 800 799 796 794 793 792 791 792
841 838 834 828 835 840 836 831 829 830 829 832 827 821 851 855 858 859 858 859 857 854 852 849 844 841 837 833 829 826 822 819 815 813 809 805 802 798 796 793 792 791 790 790
838 838 834 828 833 835 833 833 835 835 836 830 824 818 854 856 858 860 861 860 858 857 855 852 849 845 841 837 834 830 826 823 820 815 811 809 806 803 798 794 792 791 787 784
840 837 829 827 820 829 828 831 833 831 835 820 816 833 852 857 859 861 862 863 862 859 856 853 849 847 845 842 837 832 828 824 819 816 813 809 806 804 800 796 792 788 784 782
840 834 838 830 828 829 829 826 827 834 828 826 814 824 853 863 865 867 869 867 865 864 861 858 853 848 844 840 837 835 832 827 822 816 811 807 804 800 795 791 789 785 781 780
845 833 840 836 827 832 829 821 823 825 827 825 824 843 862 865 866 868 872 872 868 865 863 861 858 854 848 843 838 832 827 824 822 817 814 809 803 798 792 787 783 780 777 773
842 836 838 825 831 826 813 824 830 839 846 841 831 846 865 862 864 870 874 872 870 868 866 862 859 857 853 849 842 835 830 824 819 815 810 806 804 800 795 790 784 778 772 769
838 840 837 829 826 819 844 845 841 839 856 859 862 866 870 872 871 872 875 872 870 870 867 864 861 857 854 850 845 841 834 826 821 815 811 805 800 795 789 785 781 776 772 766
842 836 831 829 823 814 852 850 847 843 855 867 866 871 872 873 870 874 875 876 875 873 869 866 862 859 854 850 845 841 835 830 824 817 810 804 799 793 787 779 774 770 765 760
846 841 836 844 829 803 836 856 861 859 836 869 871 872 875 873 853 858 875 875 874 873 871 867 863 859 853 849 844 839 832 826 821 817 812 806 799 790 782 775 769 765 759 752
843 845 838 832 825 817 858 864 864 842 849 874 876 878 878 874 876 875 875 874 873 871 868 865 861 858 853 848 843 838 832 826 821 814 808 801 794 787 779 772 766 759 752 745
825 831 836 835 832 824 870 866 852 872 875 877 879 880 879 878 879 878 875 872 870 867 865 862 858 853 849 846 841 836 830 824 818 811 803 794 787 779 772 763 755 749 743 736
828 839 829 839 841 873 876 875 879 879 878 880 881 882 881 880 878 877 875 873 870 868 864 860 856 851 847 843 839 833 827 821 814 808 800 791 782 774 766 757 748 740 734 728
854 861 847 851 874 877 880 881 882 882 882 884 885 883 882 880 878 876 874 872 870 866 863 859 854 849 844 840 835 831 824 818 811 804 796 788 779 769 761 752 744 734 727 718
865 864 862 867 875 880 883 883 884 884 885 884 884 883 881 879 877 875 872 870 867 864 860 857 852 846 841 836 831 827 821 815 808 801 793 784 775 766 757 748 739 730 722 714
875 874 864 859 878 879 880 884 885 884 884 883 882 880 879 878 876 874 871 867 864 860 857 853 849 844 838 832 826 822 818 812 805 796 788 781 771 762 752 741 728 722 714 706
Wind_Speed
2 3 7 11 7 8 7 8 10 6 7 7 15 16 15 6 11 15 13 11 1 9 7 11 11 16 12 8 14 22 22 19 15 14 12 13 14 12 12 12 14 12 12 13
2 5 6 9 4 9 2 10 9 2 6 6 19 21 19 19 18 13 12 13 6 6 6 7 8 12 9 5 10 16 18 18 16 12 12 10 13 12 13 16 18 16 14 14
3 3 8 4 5 13 1 9 8 4 7 1 1 19 19 16 23 25 24 18 14 6 8 10 10 6 9 8 11 7 13 21 20 16 11 11 10 12 12 13 13 16 16 18
1 3 5 7 7 8 7 9 6 6 2 5 10 5 18 18 19 22 18 21 21 11 10 9 9 6 8 6 3 3 8 18 20 19 15 14 13 14 14 15 15 16 18 19
4 5 6 11 8 5 6 6 4 4 5 2 14 4 14 18 19 20 19 16 18 19 15 10 9 10 8 4 4 4 5 8 15 15 14 13 13 11 8 11 13 16 18 20
2 1 2 6 8 2 8 2 2 1 2 5 8 2 10 11 16 19 19 19 19 20 18 18 20 10 5 1 3 3 3 6 8 11 11 11 13 11 9 9 10 13 17 21
4 1 2 2 6 1 13 2 2 2 2 3 4 4 6 12 15 14 16 18 20 20 21 20 20 23 24 21 5 6 6 5 6 12 14 13 13 13 13 13 13 12 12 17
4 2 6 7 3 4 5 5 3 1 1 2 3 3 4 9 14 13 15 17 19 21 19 21 27 27 28 28 28 26 15 8 7 8 11 15 15 16 14 15 15 14 14 16
4 3 1 2 2 3 4 4 3 2 1 2 2 3 6 8 14 16 18 19 20 20 20 21 27 29 29 30 31 30 27 27 22 11 11 12 13 16 18 19 19 19 17 20
2 4 1 3 2 2 4 2 2 1 2 2 4 4 3 9 12 14 17 17 18 19 20 19 26 28 30 30 28 29 27 25 23 20 17 16 14 11 12 14 17 20 23 24
2 2 1 2 3 3 1 3 3 1 3 2 2 3 4 5 6 8 11 14 16 17 18 17 23 25 25 26 29 29 29 28 27 28 24 20 16 12 11 13 14 18 20 20
0 1 3 3 2 3 1 1 1 3 2 2 4 2 4 5 5 8 9 12 13 15 15 19 23 24 26 27 27 27 26 26 25 25 24 22 20 19 17 14 13 13 17 20
3 2 4 3 3 4 4 2 1 2 0 6 4 3 4 3 4 8 8 10 12 14 15 16 19 22 24 26 27 27 26 26 25 25 24 21 20 20 20 19 16 14 15 17
3 3 7 7 9 2 8 5 5 6 4 3 9 4 9 1 4 8 8 10 12 14 16 16 18 21 22 22 24 26 27 28 28 26 25 24 24 22 21 20 18 17 15 17
2 5 5 11 13 12 12 14 11 12 14 8 1 5 6 2 7 8 8 10 12 14 16 17 17 25 28 28 27 25 24 25 28 28 28 27 27 25 25 23 21 22 20 19
1 3 2 7 10 6 9 10 9 10 11 14 11 3 3 2 4 6 7 10 12 14 15 15 19 22 25 28 30 30 31 30 27 25 25 26 27 29 28 27 28 27 24 21
3 3 2 5 1 10 11 2 3 4 2 2 7 2 2 0 6 6 5 9 11 12 14 15 18 20 22 24 27 30 31 30 30 30 29 27 27 27 27 28 29 30 29 27
5 5 3 5 6 5 3 4 3 5 5 5 5 3 4 6 8 1 6 10 12 13 14 17 19 22 23 23 24 26 28 29 30 29 30 31 31 31 31 30 29 29 28 29
10 7 4 3 3 2 4 3 3 3 4 2 3 1 4 7 5 8 8 9 8 11 13 14 16 19 21 21 23 24 24 23 25 29 33 34 34 34 33 33 33 32 31 29
6 6 4 2 4 5 4 5 2 2 5 5 1 1 5 8 4 4 12 13 12 13 14 18 18 18 18 21 23 24 25 26 26 28 30 32 34 34 35 35 35 34 32 33
4 3 10 8 5 2 3 2 1 4 3 4 0 2 3 3 4 10 12 10 11 13 14 14 14 16 18 19 21 22 23 24 28 31 32 34 35 34 34 33 32 33 34 34
5 6 4 3 5 7 4 2 4 4 5 3 1 0 3 5 6 8 11 14 17 17 18 16 17 18 18 19 21 23 23 26 29 32 34 36 36 35 34 35 35 33 32 34
3 2 0 2 2 5 7 8 5 3 2 2 1 2 4 6 7 8 9 12 14 16 19 18 19 21 19 18 20 23 25 27 29 31 33 35 37 36 34 35 36 34 31 29
2 4 1 2 4 4 5 5 4 3 2 1 1 3 4 7 8 9 10 13 14 15 17 18 20 20 21 21 22 22 26 26 28 31 32 33 31 35 36 33 34 31 32 29
2 4 1 2 5 5 3 3 2 1 1 2 4 5 6 7 9 10 12 14 15 17 17 18 19 21 23 24 23 22 25 26 29 29 30 31 30 31 34 33 33 33 33 33
3 2 1 1 3 1 1 3 1 1 3 5 6 8 8 9 12 14 15 16 17 18 20 19 20 21 24 25 25 24 24 25 29 30 28 30 31 31 31 33 35 34 31 31
Wind_Direction
35 46 8 339 334 307 306 307 318 2 6 7 54 47 35 10 357 16 13 351 36 294 156 120 112 116 97 115 153 163 164 165 167 173 171 186 193 194 198 201 202 205 207 208
162 34 341 316 293 331 312 337 14 94 5 62 68 56 39 36 22 23 359 352 335 239 109 119 91 80 90 133 107 161 181 185 180 184 187 191 195 208 207 207 211 217 216 213
50 14 320 335 346 352 73 5 334 307 319 199 28 52 27 25 35 30 13 354 341 127 96 84 81 142 162 166 208 162 187 199 194 191 188 192 194 206 207 211 212 221 222 218
18 352 347 343 13 343 345 349 301 302 274 55 346 76 22 8 29 36 23 358 356 26 66 65 92 75 51 5 286 246 222 203 197 199 203 203 210 209 212 214 220 225 221 220
9 347 358 357 350 336 326 335 326 334 67 106 21 56 10 11 9 9 14 18 9 20 27 33 54 76 68 27 79 160 195 192 200 196 205 207 220 221 225 221 225 225 226 227
351 336 317 326 310 258 322 223 240 243 321 49 7 0 35 22 354 352 6 24 22 24 27 28 20 2 10 7 85 156 145 210 215 207 213 224 235 234 233 234 234 228 228 230
334 26 337 346 326 345 6 40 204 171 52 52 355 36 31 0 13 6 6 21 32 33 33 29 30 26 24 17 314 228 211 182 208 219 222 229 248 250 244 241 241 241 234 232
355 334 5 348 29 315 359 2 6 103 144 62 356 116 53 26 25 31 33 36 37 35 33 35 32 31 29 29 26 23 353 279 244 244 243 233 241 251 250 248 247 242 246 248
343 317 300 318 345 332 6 26 332 83 89 237 101 117 195 40 36 30 32 30 30 28 29 29 30 31 28 29 27 26 25 25 23 359 295 281 264 265 264 263 258 256 254 258
120 290 83 320 271 80 38 75 315 356 211 177 162 207 197 12 17 22 26 25 22 21 20 21 21 21 21 20 21 27 27 26 20 17 11 6 352 329 305 289 277 275 273 271
173 228 198 248 23 340 94 49 54 306 303 286 230 153 45 63 32 33 30 27 24 19 14 14 14 16 15 14 17 15 16 13 14 8 9 6 358 347 321 306 306 295 290 282
161 280 280 304 349 255 282 350 27 320 341 306 311 111 90 80 43 15 19 15 15 16 15 10 9 8 9 9 9 8 7 6 5 1 359 0 359 357 351 341 320 296 280 279
180 214 296 172 181 166 224 188 104 107 253 248 281 111 134 95 47 24 10 8 8 7 7 8 10 9 6 3 2 1 0 358 355 354 353 352 351 347 345 336 327 309 296 290
203 230 243 265 301 323 266 213 223 245 246 243 238 171 186 126 11 10 12 5 3 4 1 358 1 2 1 1 359 356 353 351 348 348 347 345 342 339 335 330 326 316 309 295
229 255 223 260 274 269 265 267 253 227 232 237 81 242 143 35 0 360 358 1 2 2 1 360 356 353 353 353 353 352 351 349 345 342 341 339 335 333 331 330 326 320 314 300
199 269 264 271 261 260 265 260 247 240 245 250 251 194 139 148 347 5 7 359 359 358 357 355 354 353 351 349 347 345 345 345 343 340 337 334 333 330 328 326 324 319 314 307
247 246 236 267 240 303 270 223 168 131 136 266 221 85 45 143 0 8 10 3 357 354 351 350 350 350 349 347 344 342 341 340 342 339 338 335 331 325 321 315 312 310 309 307
224 202 225 277 296 237 77 34 220 130 110 114 108 87 15 338 324 291 26 2 357 352 346 344 344 342 343 341 342 338 339 338 338 337 335 333 330 325 321 316 311 306 301 295
221 207 238 255 247 335 200 172 182 217 148 118 158 18 335 326 308 177 19 5 345 337 331 330 331 332 332 336 337 334 332 334 334 333 331 329 325 321 319 315 310 306 300 292
165 230 238 195 242 268 79 130 45 207 221 161 143 317 333 331 272 91 352 344 339 339 336 331 330 329 331 333 334 333 333 334 333 330 324 321 319 317 315 313 308 303 298 292
140 178 225 234 259 267 70 353 156 218 76 138 71 357 334 327 314 314 323 329 331 328 329 328 325 326 329 330 330 329 329 330 328 325 322 320 317 314 311 308 305 301 298 295
192 184 204 205 233 256 13 151 238 66 84 97 94 339 296 310 316 320 322 326 327 327 329 328 324 325 326 329 328 324 323 325 325 324 322 319 319 314 311 309 305 298 291 289
222 315 340 304 24 79 41 78 77 55 108 104 271 319 318 307 308 312 314 315 318 319 320 321 322 320 321 323 324 319 320 323 324 323 322 319 318 316 313 309 308 303 297 282
120 15 290 193 117 115 100 85 79 70 77 29 308 297 296 297 308 308 310 312 312 315 316 320 318 317 318 323 322 318 321 322 323 320 316 316 316 317 315 311 308 304 304 288
15 334 24 102 123 132 124 80 58 90 48 335 321 310 308 308 312 314 312 311 313 315 315 318 316 317 317 321 319 320 322 323 323 319 315 316 315 315 314 309 308 306 302 297
12 47 249 54 90 347 93 146 82 2 347 337 326 324 322 316 314 315 311 312 315 314 318 316 316 316 319 320 318 320 323 325 324 321 318 316 318 319 313 313 314 313 305 304